Back to catalog

STARLINK-35437

AliveCommunicationsVLEO
NORAD 66563·PAYLOAD·🇺🇸 United States

Launched Nov 21, 2025 from Cape Canaveral Space Force Station

Loading…

Next Passes (next 24 hours)

TLE

FreshSource: CelesTrak SupGP

Epoch: Sep 14, 2026, 21:22 UTC

1 66563C 25268G   26257.89076389  .00007554  00000+0  27361-3 0  2570
2 66563  43.0037 358.4560 0001780 275.4386 197.2393 15.27570999    16

Track STARLINK-35437 in real time with AllMySat

Download on the App Store